Hourly Data Report for June 01, 2020

TORONTO CITY
ONTARIO
Current Station Operator: ECCC - MSC

43°40'00.000" N
79°24'00.000" W
112.50 m
6158355
71508
XTO

Download Data

Hourly Data (June 2020)
Hourly Data Report for June 1, 2020
TIME
LST
Temp Definition
°C
Dew Point Definition
°C
Rel Hum Definition
%
Precip. Amount Definition
mm

Wind Dir Definition
10's deg

Wind Spd Definition
km/h
Visibility Definition
km
Stn Press Definition
kPa
Hmdx Definition


Wind Chill Definition


Weather Definition


00:00 12.5 1.3 46 0.0       100.95     LegendNANA
01:00 11.6 0.0 45 0.0       100.92     LegendNANA
02:00 11.0 0.2 47 0.0       100.91     LegendNANA
03:00 10.5 0.6 50 0.0       100.89     LegendNANA
04:00 10.2 0.9 52 0.0       100.93     LegendNANA
05:00 10.5 1.6 54 0.0       100.99     LegendNANA
06:00 10.4 2.5 58 0.0       101.03     LegendNANA
07:00 11.8 2.6 53 0.0       101.05     LegendNANA
08:00 14.5 2.1 43 0.0       101.02     LegendNANA
09:00 16.4 2.0 38 0.0       100.98     LegendNANA
10:00 16.4 2.7 40 0.0       100.98     LegendNANA
11:00 16.5 4.0 43 0.3       100.94     LegendNANA
12:00 18.0 3.0 37 0.0       100.86     LegendNANA
13:00 19.7 3.1 33 0.0       100.73     LegendNANA
14:00 22.3 1.9 26 0.2       100.62     LegendNANA
15:00 23.4 -0.4 21 0.2       100.52     LegendNANA
16:00 23.6 -0.3 21 0.3       100.49     LegendNANA
17:00 23.4 -0.2 21 0.3       100.45     LegendNANA
18:00 22.7 0.5 23 0.0       100.42     LegendNANA
19:00 21.9 -0.6 22 0.2       100.44     LegendNANA
20:00 20.1 0.3 27 0.0       100.41     LegendNANA
21:00 19.2 1.8 31 0.0       100.46     LegendNANA
22:00 17.3 2.7 38 0.0       100.44     LegendNANA
23:00 17.3 2.9 38 0.0       100.38     LegendNANA

Notes on Data Quality.

Legend

  • E = Estimated
  • M = Missing
  • NA = Not Available*
  • [empty] = Indicates an unobserved value
Date modified: